This is the latest recevied weather packets stored in our database for station/object KE8AFF-13. If no packets are shown the sender has not sent any weather packets the latest 10 day(s).
| Time | Temp. | Humidity | Pressure | Rain* | Wind** | Luminosity | Snow |
|---|---|---|---|---|---|---|---|
| 1777334703 | 16.67° C | 98% | 1015 hPa | 10.67 mm | - | 0 W/m² | - |
| 1777334395 | 16.67° C | 97% | 1015.1 hPa | 18.03 mm | - | 0 W/m² | - |
| 1777334091 | 17.22° C | 96% | 1015.2 hPa | 36.58 mm | - | 0 W/m² | - |
| 1777333790 | 17.22° C | 95% | 1015.2 hPa | 25.91 mm | - | 0 W/m² | - |
| 1777333488 | 17.78° C | 93% | 1015.2 hPa | 4.83 mm | - | 0 W/m² | - |
| 1777333185 | 17.78° C | 90% | 1014.4 hPa | 3.56 mm | - | 0 W/m² | - |
| 1777332883 | 18.89° C | 89% | 1014 hPa | 4.83 mm | - | 2 W/m² | - |
| 1777332580 | 18.89° C | 85% | 1013.9 hPa | 3.05 mm | - | 3 W/m² | - |
| 1777332277 | 19.44° C | 83% | 1013.9 hPa | 3.05 mm | - | 4 W/m² | - |
| 1777331973 | 20.56° C | 81% | 1014 hPa | 1.78 mm | - | 4 W/m² | - |
| 1777331671 | 21.11° C | 73% | 1014.1 hPa | 1.27 mm | - | 5 W/m² | - |
| 1777331368 | 21.11° C | 69% | 1014.1 hPa | 0 mm | - | 5 W/m² | - |
| 1777331066 | 21.67° C | 66% | 1014.2 hPa | 0 mm | - | 5 W/m² | - |
| 1777330762 | 21.67° C | 65% | 1014.2 hPa | 0 mm | - | 6 W/m² | - |
| 1777330460 | 22.22° C | 64% | 1014.1 hPa | 0 mm | - | 6 W/m² | - |
| 1777330157 | 22.22° C | 64% | 1013.9 hPa | 0 mm | - | 6 W/m² | - |
| 1777329856 | 22.22° C | 63% | 1014 hPa | 0 mm | - | 9 W/m² | - |
| 1777329554 | 22.22° C | 63% | 1013.7 hPa | 0 mm | - | 10 W/m² | - |
| 1777329251 | 22.22° C | 63% | 1013.9 hPa | 0 mm | - | 10 W/m² | - |
| 1777328949 | 22.22° C | 63% | 1013.7 hPa | 0 mm | - | 11 W/m² | - |
| 1777328646 | 22.22° C | 62% | 1014 hPa | 0 mm | - | 13 W/m² | - |
| 1777328344 | 22.22° C | 62% | 1014.1 hPa | 0 mm | - | 16 W/m² | - |
| 1777328042 | 22.22° C | 62% | 1013.7 hPa | 0 mm | - | 19 W/m² | - |
| 1777327740 | 22.78° C | 62% | 1013.8 hPa | 0 mm | - | 23 W/m² | - |
| 1777327437 | 22.78° C | 61% | 1013.7 hPa | 0 mm | - | 25 W/m² | - |
* Rain latest hour (hover to see other rain measurements)
** Current wind speed in m/s (hover to see current wind gust speed)